Orbital Elements at Epoch 2459200.5 (2020-Dec-17.0) TDB
Reference: JPL 26 (heliocentric ecliptic J2000)
Element | Value | Uncertainty (1-sigma) | Units |
e | .2565035741067186 | 3.2937e-08 | |
a | 2.67195529817936 | 1.1274e-08 | au |
q | 1.986589214342971 | 9.1199e-08 | au |
i | 3.016217228046719 | 4.2572e-06 | deg |
node | 178.7094255432717 | 6.5278e-05 | deg |
peri | 135.1293837144181 | 6.5782e-05 | deg |
M | 338.4649646508057 | 9.2903e-06 | deg |
tp | 2459295.930082056397 (2021-Mar-22.43008206) | 4.1433e-05 | TDB |
period | 1595.299426410656 4.37 | 1.0097e-05 2.764e-08 | d yr |
n | .2256629658608867 | 1.4282e-09 | deg/d |
Q | 3.357321382015749 | 1.4166e-08 | au |
|
| | Orbit Determination Parameters
Additional Information
|